Location: Risskov
(56.1972°N, 10.2480°E)
Time: 13:02:17
(UTC+00:00)

Cosmos 2278 Rocket - Pass Details

Date: 05 July 2020
Orbit: 841 x 846 km, 71.0° (Epoch: 06 August)

Event Time Altitude Azimuth Distance (km) Brightness Sun altitude
Rises 22:42:55 0° 320° (NW) 3,418 6.5 -10.7°
Reaches altitude 10° 22:45:51 10° 307° (NW) 2,478 5.3 -10.7°
Maximum altitude 22:50:08 23° 258° (WSW) 1,747 3.8 -10.8°
Drops below altitude 10° 22:54:24 10° 208° (SSW) 2,462 4.1 -10.9°
Enters shadow 22:54:44 - 206° (SSW) 2,557 4.2 -10.9°
